This is the latest recevied weather packets stored in our database for station/object W1RCY. If no packets are shown the sender has not sent any weather packets the latest 10 day(s).
| Time | Temp. | Humidity | Pressure | Rain* | Wind** | Luminosity | Snow |
|---|---|---|---|---|---|---|---|
| 1777636599 | 7.22° C | 80% | 1006.7 hPa | 0 mm | - | 113 W/m² | - |
| 1777636295 | 7.22° C | 81% | 1006.5 hPa | 0 mm | - | 257 W/m² | - |
| 1777635990 | 6.67° C | 82% | 1006.5 hPa | 0 mm | - | 185 W/m² | - |
| 1777635686 | 6.67° C | 81% | 1006.5 hPa | 0 mm | - | 94 W/m² | - |
| 1777635383 | 6.67° C | 82% | 1006.4 hPa | 0 mm | - | 112 W/m² | - |
| 1777635080 | 6.67° C | 82% | 1006.6 hPa | 0 mm | - | 222 W/m² | - |
| 1777634775 | 6.67° C | 82% | 1006.4 hPa | 0 mm | - | 199 W/m² | - |
| 1777634473 | 6.11° C | 83% | 1006.5 hPa | 0 mm | - | 154 W/m² | - |
| 1777634169 | 6.11° C | 82% | 1006.5 hPa | 0 mm | - | 124 W/m² | - |
| 1777633866 | 6.11° C | 83% | 1006.5 hPa | 0 mm | - | 117 W/m² | - |
| 1777633564 | 6.11° C | 83% | 1006.5 hPa | 0 mm | - | 109 W/m² | - |
| 1777633262 | 5.56° C | 83% | 1006.5 hPa | 0 mm | - | 121 W/m² | - |
| 1777632958 | 5.56° C | 84% | 1006.4 hPa | 0 mm | - | 36 W/m² | - |
| 1777632655 | 5.56° C | 84% | 1006.6 hPa | 0 mm | - | 34 W/m² | - |
| 1777632351 | 5.56° C | 84% | 1006.4 hPa | 0 mm | - | 42 W/m² | - |
| 1777632049 | 5.56° C | 85% | 1006.3 hPa | 0 mm | - | 40 W/m² | - |
| 1777631747 | 5.56° C | 85% | 1006.2 hPa | 0 mm | - | 32 W/m² | - |
| 1777631444 | 5° C | 86% | 1006.4 hPa | 0 mm | - | 30 W/m² | - |
| 1777631140 | 5° C | 86% | 1006.2 hPa | 0 mm | - | 26 W/m² | - |
| 1777630838 | 5° C | 86% | 1006.4 hPa | 0 mm | - | 25 W/m² | - |
| 1777630534 | 5° C | 87% | 1006.1 hPa | 0 mm | - | 20 W/m² | - |
| 1777630230 | 5° C | 88% | 1005.8 hPa | 0 mm | - | 19 W/m² | - |
| 1777629929 | 5° C | 88% | 1006 hPa | 0 mm | - | 16 W/m² | - |
| 1777629627 | 5° C | 89% | 1006 hPa | 0 mm | - | 13 W/m² | - |
| 1777629322 | 5° C | 88% | 1006.1 hPa | 0 mm | - | 10 W/m² | - |
* Rain latest hour (hover to see other rain measurements)
** Current wind speed in m/s (hover to see current wind gust speed)